Location: Caltech
(34.1382°N, 118.1253°W)
Time: 23:46:06
(UTC-07:00)

Saudisat 1A - Visible Passes

Search period start: 01 September 2014 00:00
Search period end: 11 September 2014 00:00
Orbit: 600 x 607 km, 64.6° (Epoch: 01 September)

Date Brightness Start Highest point End Pass type
(mag) Time Alt. Az. Time Alt. Az. Time Alt. Az.
03 Sep 10.9 06:00:59 10° N 06:04:02 18° NE 06:07:04 10° E visible
04 Sep 9.7 20:16:21 10° SSE 20:17:41 16° SE 20:17:41 16° SE visible
05 Sep 8.3 20:27:36 10° S 20:31:44 41° ESE 20:35:53 10° NE visible
05 Sep 10.7 22:08:27 10° W 22:11:28 18° NW 22:14:31 10° N visible
06 Sep 11.1 04:59:07 10° NNE 05:01:22 14° NE 05:03:36 10° ENE visible
06 Sep 7.9 20:39:35 10° SSW 20:43:59 88° ESE 20:48:24 10° NNE visible
07 Sep 10.5 05:10:21 10° N 05:13:58 24° NE 05:17:35 10° ESE visible
07 Sep 9.1 20:52:07 10° SW 20:56:20 45° WNW 21:00:35 10° NNE visible
08 Sep 9.2 05:22:11 10° NNW 05:26:27 46° ENE 05:30:41 10° SE visible
08 Sep 8.9 19:25:29 10° S 19:29:17 29° ESE 19:33:06 10° NE visible
08 Sep 10.4 21:05:15 10° WSW 21:08:49 24° NW 21:12:24 10° N visible
09 Sep 11.4 03:58:17 10° NE 03:58:38 10° NE 03:58:59 10° NE visible
09 Sep 8.0 05:34:23 10° NNW 05:38:48 85° WSW 05:43:11 10° SSE visible
09 Sep 8.0 19:37:09 10° SSW 19:41:28 61° ESE 19:45:50 10° NE visible
09 Sep 11.2 21:19:17 10° WNW 21:21:26 13° NW 21:23:35 10° NNW visible
10 Sep 10.7 04:08:13 10° N 04:11:19 18° NE 04:14:23 10° E visible
10 Sep 8.4 05:46:55 10° NW 05:51:02 40° WSW 05:55:08 10° S visible
10 Sep 8.5 19:49:25 10° SW 19:53:46 64° WNW 19:58:09 10° NNE visible
